User: anonymous
Location: McDonald Observatory
(30.6717°N, 104.0221°W)
Time: 08:10:38
(UTC-05:00)
Language:

Cosmos 1484 Rocket - Orbit

View from above orbital plane
View from above orbital plane
View from above satellite
View from above satellite

Ground track
Ground track

The orbit data is extracted from the following two-line orbital elements,

1 14208U 83075B   14206.09837328  .00000131  00000-0  12641-4 0   748
2 14208 097.4220 241.6041 0043353 170.8154 189.3877 15.07020778687914
Epoch (UTC): 25 July 2014 02:21:39
Eccentricity: 0.0043353
inclination: 97.4220°
perigee height: 515 km
apogee height: 575 km
right ascension of ascending node: 241.6041°
argument of perigee: 170.8154°
revolutions per day: 15.07020778
mean anomaly at epoch: 189.3877°
orbit number at epoch: 68791

The dashed part of the orbit path shows where the satellite is in the earth's shadow,  

DLR